TimePST,TemperatureF,Dew PointF,Humidity,Sea Level PressureIn,VisibilityMPH,Wind Direction,Wind SpeedMPH,Gust SpeedMPH,PrecipitationIn,Events,Conditions,WindDirDegrees,DateUTC
12:58 AM,39.2,38.8,99,30.18,9.0,South,2.3,-,N/A,,Mostly Cloudy,170,2013-01-05 08:58:00
1:19 AM,39.2,37.4,93,30.16,9.0,South,2.3,-,N/A,,Scattered Clouds,180,2013-01-05 09:19:00
1:29 AM,39.2,39.2,100,30.16,10.0,SSE,1.2,-,N/A,,Mostly Cloudy,150,2013-01-05 09:29:00
1:49 AM,39.2,39.2,100,30.16,7.0,SW,2.3,-,N/A,,Overcast,230,2013-01-05 09:49:00
1:58 AM,38.5,38.1,99,30.18,9.0,SW,4.6,-,N/A,,Overcast,220,2013-01-05 09:58:00
2:08 AM,39.2,39.2,100,30.16,1.2,SSE,2.3,-,N/A,,Overcast,150,2013-01-05 10:08:00
2:13 AM,39.2,39.2,100,30.16,1.0,South,2.3,-,N/A,,Mist,180,2013-01-05 10:13:00
2:18 AM,39.2,39.2,100,30.17,0.8,SSW,2.3,-,N/A,,Mist,210,2013-01-05 10:18:00
2:23 AM,39.2,39.2,100,30.17,0.5,SSE,2.3,-,N/A,Fog,Fog,160,2013-01-05 10:23:00
2:28 AM,39.2,39.2,100,30.16,0.5,South,2.3,-,N/A,Fog,Fog,170,2013-01-05 10:28:00
2:43 AM,39.2,39.2,100,30.17,0.5,South,2.3,-,N/A,Fog,Fog,170,2013-01-05 10:43:00
2:58 AM,39.7,39.4,99,30.19,0.5,SSE,2.3,-,N/A,Fog,Fog,150,2013-01-05 10:58:00
3:03 AM,39.2,39.2,100,30.17,0.5,Calm,Calm,-,N/A,Fog,Fog,0,2013-01-05 11:03:00
3:08 AM,39.2,39.2,100,30.17,0.5,ESE,2.3,-,N/A,Fog,Fog,110,2013-01-05 11:08:00
3:13 AM,39.2,39.2,100,30.17,1.0,ESE,2.3,-,N/A,,Mist,110,2013-01-05 11:13:00
3:18 AM,39.2,39.2,100,30.17,1.2,ESE,3.5,-,N/A,,Overcast,120,2013-01-05 11:18:00
3:23 AM,39.2,39.2,100,30.17,1.5,SE,3.5,-,N/A,,Overcast,140,2013-01-05 11:23:00
3:28 AM,39.2,39.2,100,30.17,2.0,ESE,2.3,-,N/A,,Mostly Cloudy,120,2013-01-05 11:28:00
3:33 AM,39.2,39.2,100,30.17,1.8,ESE,2.3,-,N/A,,Mostly Cloudy,110,2013-01-05 11:33:00
3:43 AM,39.2,39.2,100,30.17,2.0,Calm,Calm,-,N/A,,Mostly Cloudy,0,2013-01-05 11:43:00
3:48 AM,39.2,39.2,100,30.17,1.8,ENE,1.2,-,N/A,,Mostly Cloudy,60,2013-01-05 11:48:00
3:53 AM,39.2,39.2,100,30.16,1.5,South,2.3,-,N/A,,Mostly Cloudy,190,2013-01-05 11:53:00
3:58 AM,39.4,39.2,99,30.19,1.5,South,1.2,-,N/A,,Mostly Cloudy,190,2013-01-05 11:58:00
4:03 AM,39.2,39.2,100,30.17,1.5,SW,2.3,-,N/A,,Mostly Cloudy,230,2013-01-05 12:03:00
4:08 AM,39.2,39.2,100,30.17,1.2,SSW,4.6,-,N/A,,Mostly Cloudy,210,2013-01-05 12:08:00
4:28 AM,39.2,39.2,100,30.17,1.0,South,2.3,-,N/A,,Mist,180,2013-01-05 12:28:00
4:43 AM,39.2,39.2,100,30.16,0.8,Calm,Calm,-,N/A,,Mist,0,2013-01-05 12:43:00
4:53 AM,39.2,39.2,100,30.16,0.5,SSW,2.3,-,N/A,Fog,Fog,210,2013-01-05 12:53:00
4:58 AM,39.2,39.2,100,30.18,0.5,South,2.3,-,N/A,Fog,Fog,190,2013-01-05 12:58:00
5:03 AM,39.2,37.4,93,30.16,0.5,Calm,Calm,-,N/A,Fog,Fog,0,2013-01-05 13:03:00
5:08 AM,39.2,37.4,93,30.16,0.5,SSW,2.3,-,N/A,Fog,Fog,210,2013-01-05 13:08:00
5:18 AM,39.2,37.4,93,30.16,0.5,West,1.2,-,N/A,Fog,Fog,270,2013-01-05 13:18:00
5:23 AM,39.2,37.4,93,30.16,0.5,Calm,Calm,-,N/A,Fog,Fog,0,2013-01-05 13:23:00
5:28 AM,39.2,37.4,93,30.16,0.8,South,2.3,-,N/A,,Mist,190,2013-01-05 13:28:00
5:33 AM,39.2,37.4,93,30.16,1.0,SW,3.5,-,N/A,,Mist,220,2013-01-05 13:33:00
5:38 AM,39.2,37.4,93,30.17,1.5,SW,2.3,-,N/A,,Scattered Clouds,220,2013-01-05 13:38:00
5:43 AM,39.2,37.4,93,30.16,1.5,Calm,Calm,-,N/A,,Partly Cloudy,0,2013-01-05 13:43:00
5:48 AM,39.2,37.4,93,30.16,1.5,Calm,Calm,-,N/A,,Scattered Clouds,0,2013-01-05 13:48:00
5:53 AM,39.2,37.4,93,30.16,3.0,Calm,Calm,-,N/A,,Scattered Clouds,0,2013-01-05 13:53:00
5:58 AM,38.3,37.9,99,30.18,6.0,Calm,Calm,-,N/A,,Scattered Clouds,0,2013-01-05 13:58:00
6:13 AM,37.4,37.4,100,30.17,2.5,South,3.5,-,N/A,,Scattered Clouds,190,2013-01-05 14:13:00
6:18 AM,37.4,37.4,100,30.17,1.8,South,3.5,-,N/A,,Partly Cloudy,170,2013-01-05 14:18:00
6:23 AM,37.4,37.4,100,30.17,2.0,SSE,2.3,-,N/A,,Clear,150,2013-01-05 14:23:00
6:28 AM,37.4,37.4,100,30.17,4.0,SSE,2.3,-,N/A,,Clear,150,2013-01-05 14:28:00
6:58 AM,38.8,38.5,99,30.18,9.0,SSE,2.3,-,N/A,,Clear,150,2013-01-05 14:58:00
7:58 AM,38.8,38.8,100,30.19,10.0,West,9.2,-,N/A,,Clear,260,2013-01-05 15:58:00
8:58 AM,39.2,39.2,100,30.20,10.0,ENE,2.3,-,N/A,,Mostly Cloudy,70,2013-01-05 16:58:00
9:58 AM,40.3,40.3,100,30.22,10.0,WSW,2.3,-,N/A,,Mostly Cloudy,250,2013-01-05 17:58:00
10:03 AM,41.0,41.0,100,30.20,10.0,South,2.3,-,N/A,Rain,Light Rain,180,2013-01-05 18:03:00
10:58 AM,40.8,40.8,100,30.21,10.0,SE,5.8,-,0.01,Rain,Light Rain,140,2013-01-05 18:58:00
11:30 AM,41.0,41.0,100,30.18,10.0,ESE,5.8,-,N/A,,Scattered Clouds,110,2013-01-05 19:30:00
11:58 AM,41.4,41.4,100,30.19,10.0,ESE,5.8,-,0.01,,Clear,120,2013-01-05 19:58:00
12:58 PM,42.4,42.4,100,30.17,10.0,Calm,Calm,-,N/A,,Clear,0,2013-01-05 20:58:00
1:58 PM,43.5,43.2,99,30.13,10.0,SE,5.8,-,N/A,,Partly Cloudy,140,2013-01-05 21:58:00
2:58 PM,43.9,42.8,96,30.16,10.0,Variable,2.3,-,N/A,,Partly Cloudy,0,2013-01-05 22:58:00
3:58 PM,43.0,42.6,99,30.16,10.0,West,3.5,-,N/A,,Clear,260,2013-01-05 23:58:00
4:58 PM,41.0,40.8,99,30.14,10.0,SSW,2.3,-,N/A,,Mostly Cloudy,200,2013-01-06 00:58:00
5:08 PM,41.0,41.0,100,30.12,9.0,South,3.5,-,N/A,,Mostly Cloudy,170,2013-01-06 01:08:00
5:13 PM,39.2,39.2,100,30.12,10.0,SSE,1.2,-,N/A,,Overcast,160,2013-01-06 01:13:00
5:33 PM,39.2,37.4,93,30.12,9.0,South,2.3,-,N/A,,Overcast,180,2013-01-06 01:33:00
5:43 PM,37.4,37.4,100,30.12,2.5,SSW,2.3,-,N/A,,Overcast,210,2013-01-06 01:43:00
5:48 PM,37.4,37.4,100,30.12,1.5,SSE,2.3,-,N/A,,Overcast,160,2013-01-06 01:48:00
5:58 PM,37.4,37.4,100,30.15,2.5,Calm,Calm,-,N/A,,Mostly Cloudy,0,2013-01-06 01:58:00
6:03 PM,37.4,37.4,100,30.12,4.0,ENE,1.2,-,N/A,,Overcast,70,2013-01-06 02:03:00
6:18 PM,37.4,37.4,100,30.12,8.0,SE,1.2,-,N/A,,Overcast,130,2013-01-06 02:18:00
6:28 PM,39.2,37.4,93,30.13,2.5,Calm,Calm,-,N/A,,Overcast,0,2013-01-06 02:28:00
6:33 PM,37.4,37.4,100,30.13,1.2,SE,2.3,-,N/A,,Overcast,140,2013-01-06 02:33:00
6:38 PM,37.4,37.4,100,30.12,1.0,SE,2.3,-,N/A,,Partly Cloudy,140,2013-01-06 02:38:00
6:43 PM,37.4,35.6,93,30.12,1.2,Calm,Calm,-,N/A,,Scattered Clouds,0,2013-01-06 02:43:00
6:48 PM,37.4,35.6,93,30.12,4.0,ESE,2.3,-,N/A,,Mostly Cloudy,120,2013-01-06 02:48:00
6:53 PM,37.4,37.4,100,30.12,5.0,SE,2.3,-,N/A,,Mostly Cloudy,130,2013-01-06 02:53:00
6:58 PM,37.4,37.4,100,30.14,6.0,SSE,2.3,-,N/A,,Mostly Cloudy,150,2013-01-06 02:58:00
7:13 PM,37.4,37.4,100,30.12,4.0,WSW,2.3,-,N/A,,Overcast,250,2013-01-06 03:13:00
7:23 PM,37.4,37.4,100,30.12,6.0,South,2.3,-,N/A,,Overcast,180,2013-01-06 03:23:00
7:58 PM,37.9,37.8,99,30.15,9.0,WNW,2.3,-,N/A,,Mostly Cloudy,300,2013-01-06 03:58:00
8:00 PM,39.2,37.4,93,30.13,9.0,West,3.5,-,N/A,,Mostly Cloudy,280,2013-01-06 04:00:00
8:05 PM,39.2,39.2,100,30.13,10.0,West,1.2,-,N/A,,Light Drizzle,270,2013-01-06 04:05:00
8:40 PM,39.2,39.2,100,30.12,9.0,Variable,1.2,-,N/A,Rain,Light Rain,0,2013-01-06 04:40:00
8:58 PM,39.4,39.2,99,30.15,8.0,Calm,Calm,-,0.01,Rain,Light Rain,0,2013-01-06 04:58:00
9:16 PM,39.2,39.2,100,30.14,7.0,SSW,2.3,-,N/A,Rain,Light Rain,210,2013-01-06 05:16:00
9:41 PM,39.2,39.2,100,30.14,6.0,Calm,Calm,-,N/A,Rain,Light Rain,0,2013-01-06 05:41:00
9:47 PM,39.2,39.2,100,30.14,8.0,Calm,Calm,-,N/A,,Overcast,0,2013-01-06 05:47:00
9:49 PM,39.2,39.2,100,30.14,8.0,Calm,Calm,-,N/A,Rain,Light Rain,0,2013-01-06 05:49:00
9:58 PM,39.2,39.2,100,30.16,9.0,WSW,2.3,-,0.01,Rain,Light Rain,240,2013-01-06 05:58:00
10:03 PM,39.2,39.2,100,30.14,10.0,Variable,1.2,-,N/A,Rain,Light Rain,0,2013-01-06 06:03:00
10:18 PM,39.2,39.2,100,30.14,10.0,SW,2.3,-,N/A,Rain,Light Rain,230,2013-01-06 06:18:00
10:31 PM,39.2,39.2,100,30.14,10.0,SSW,3.5,-,N/A,,Overcast,210,2013-01-06 06:31:00
10:58 PM,39.4,39.2,99,30.17,10.0,SSW,1.2,-,0.01,,Overcast,210,2013-01-06 06:58:00
11:58 PM,40.5,40.1,99,30.18,10.0,WSW,5.8,-,N/A,,Overcast,250,2013-01-06 07:58:00